[[{"header":{"parameterUnit":"m.s-1","parameterCategory":1,"la1":30.2991,"la2":30.254,"lo1":-89.0895,"lo2":-89.0444,"dy":0.0017,"dx":0.0017,"nx":28,"ny":28,"refTime":"2023-08-30T09:00:00:Z","depth":0,"parameterNumber":2,"parameterNumberName":"U-component_of_WINDS"},"data":[0,0,0,0,0,0,0,0,0,0,0,0,0,0,0,0,0,0,0,0,0,0,0,0,0,0,0,0,0,0,0,0,0,0,0,0,0,0,0,0,0,0,0,0,0,0,0,0,0,0,0,0,0,0,0,0,0,0,0.1038,0.1037,0,0.0923,0.0921,0.092,0.0898,0.0899,0.09,0.0901,0.0775,0.0771,0.0767,0,0,0,0,0,0,0,0,0,0,0,0,0,0.1234,0.123,0.1039,0.1037,0.1036,0.0923,0.0921,0.092,0.0898,0.0899,0.09,0.0901,0.0776,0.0771,0.0766,0,0,0,0,0,0,0,0,0,0,0,0,0,0.1136,0.1229,0.1039,0.1011,0.1008,0.0923,0.0921,0.0919,0.0898,0.0899,0.09,0.0902,0.0778,0.0772,0.0766,0.0698,0,0,0.0746,0.0743,0,0,0,0,0,0,0,0,0.1142,0.1129,0.1017,0.1013,0.1009,0.0926,0.0944,0.0845,0.0897,0.0939,0.0901,0.0902,0.0824,0.0814,0.0789,0.0692,0.0687,0.0746,0.0742,0.0739,0.0737,0,0,0,0,0,0,0,0.1149,0.1134,0.0992,0.1015,0.101,0.1002,0.099,0.0925,0.0875,0.0936,0.0934,0.0921,0.0822,0.0795,0.0786,0.0685,0.0746,0.074,0.0736,0.0734,0.0526,0.0525,0,0,0,0,0,0,0.1161,0.114,0.0996,0.0989,0.108,0.0998,0.0984,0.0951,0.0875,0.0865,0.092,0.092,0.0805,0.0793,0.0781,0.0696,0.0739,0.0733,0.073,0.0528,0.0526,0.0524,0,0,0,0,0,0,0.1166,0.1149,0.1001,0.1064,0.1045,0.0993,0.0956,0.0948,0.0921,0.0863,0.0854,0.0902,0.0806,0.079,0.0719,0.0692,0.073,0.0725,0.053,0.0527,0.0525,0.0527,0,0,0,0,0,0,0.1171,0.115,0.1126,0.1064,0.1041,0.0943,0.0955,0.0945,0.0911,0.0911,0.0844,0.0834,0.0806,0.0729,0.0713,0.0684,0.072,0.0532,0.0529,0.0526,0.0529,0.0525,0.0521,0,0,0,0,0,0.1178,0.1129,0.1125,0.1107,0.101,0.0942,0.0929,0.0898,0.0909,0.0883,0.0846,0.0836,0.0698,0.0722,0.0704,0.0672,0.0534,0.053,0.0526,0.0531,0.0526,0.0521,0,0,0,0,0,0,0.1187,0.1121,0.1115,0.1045,0.0999,0.0938,0.0904,0.0894,0.0842,0.0844,0.0807,0.0792,0.0723,0.069,0.0718,0.0602,0.0616,0.0609,0.0626,0.062,0.0616,0.0625,0.0714,0,0,0,0,0,0.1182,0.1134,0.1078,0.1021,0.0999,0.0956,0.0925,0.0906,0.0856,0.0836,0.0793,0.0743,0.0688,0.0653,0.0599,0.0525,0.0509,0.0494,0.049,0.0487,0.048,0.0437,0.0429,0.0512,0.0512,0.0512,0,0,0.1168,0.1126,0.1098,0.1022,0.0984,0.0934,0.0939,0.0885,0.0847,0.0827,0.0758,0.0725,0.0667,0.0594,0.0559,0.0565,0.0454,0.0482,0.048,0.0475,0.0432,0.0425,0.0418,0.0509,0.0509,0.051,0,0,0.1118,0.1082,0.1031,0.0994,0.0938,0.091,0.0897,0.0838,0.0816,0.0747,0.0731,0.0683,0.059,0.0548,0.0515,0.045,0.0439,0.0434,0.0412,0.037,0.0364,0.0358,0.0333,0.0325,0.0428,0.0428,0.0428,0,0.1107,0.1033,0.1005,0.0952,0.0919,0.0901,0.0848,0.0812,0.0741,0.0717,0.0724,0.0607,0.0566,0.0483,0.0467,0.0442,0.0425,0.044,0.0368,0.0361,0.0355,0.0331,0.0322,0.0427,0.0427,0.0427,0.0427,0,0.1022,0.097,0.0935,0.0869,0.0832,0.0779,0.0741,0.0706,0.0691,0.0661,0.059,0.0541,0.0477,0.0456,0.0439,0.037,0.0375,0.0376,0.0388,0.0347,0.0324,0.0315,0.0427,0.0427,0.0427,0.0427,0,0,0.0972,0.0893,0.0881,0.085,0.0788,0.0746,0.0691,0.0631,0.0601,0.0552,0.0504,0.0426,0.0427,0.0389,0.0368,0.0332,0.0281,0.0336,0.0334,0.0326,0.02,0.0198,0.0188,0.0275,0.0273,0.0271,0.0204,0,0.0913,0.0818,0.0792,0.071,0.0661,0.0645,0.0597,0.0552,0.0523,0.0475,0.0442,0.0387,0.0392,0.037,0.0333,0.0295,0.0255,0.03,0.0227,0.0224,0.024,0.0176,0.0174,0.0113,0.0195,0.0193,0.0192,0,0.0831,0.0784,0.0698,0.0642,0.062,0.0578,0.052,0.0476,0.0424,0.0405,0.0364,0.0346,0.0286,0.0304,0.022,0.0251,0.022,0.0197,0.0194,0.0184,0.0205,0.0163,0.0093,0.0084,0.0178,0.0179,0.018,0,0.0802,0.0716,0.0653,0.0628,0.0561,0.0532,0.0502,0.0452,0.0418,0.0367,0.0343,0.0285,0.0253,0.0207,0.0173,0.019,0.0091,0.0107,0.0072,0.0073,0.005,0.0052,-0.0027,0.0033,0.0033,0.0033,0.0034,0,0.0737,0.0685,0.0639,0.06,0.0541,0.0511,0.0452,0.0421,0.0377,0.033,0.0312,0.0268,0.0227,0.0177,0.015,0.0083,0.0069,0.005,0.0043,0.0051,0.0053,0.0028,0.003,0.0031,0.0032,0.0032,0.0032,0,0.0693,0.0661,0.0591,0.0535,0.0519,0.0478,0.0428,0.0388,0.036,0.03,0.0285,0.0238,0.0178,0.0141,0.0064,0.0046,-0.0028,-0.0033,-0.001,-0.0014,-0.0047,-0.0044,-0.0146,-0.0162,-0.0089,-0.009,-0.009,0,0.0653,0.0613,0.0553,0.0522,0.0492,0.0442,0.0407,0.0376,0.034,0.0278,0.0246,0.0185,0.0135,0.004,-0.0003,-0.0062,-0.0069,-0.0101,-0.0079,-0.007,-0.0072,-0.007,-0.0075,-0.0105,-0.0106,-0.0106,-0.0107,0,0.0586,0.0572,0.0524,0.047,0.043,0.0385,0.034,0.0315,0.0276,0.0236,0.0176,0.0137,0.006,-0.0001,-0.0063,-0.0097,-0.011,-0.0113,-0.0125,-0.0119,-0.0104,-0.0114,-0.0022,-0.0111,-0.0111,-0.011,-0.011,-0.011,0.0541,0.0504,0.0456,0.0403,0.0367,0.0326,0.0286,0.0253,0.0203,0.014,0.0124,0.006,0.0008,-0.0076,-0.0111,-0.0163,-0.0159,-0.0175,-0.018,-0.0184,-0.0185,-0.0094,-0.0174,-0.0174,-0.0174,-0.0174,-0.0174,0,0.0471,0.044,0.0391,0.033,0.0288,0.0284,0.0234,0.0198,0.0143,0.0097,0.0049,-0.002,-0.0079,-0.0125,-0.0186,-0.0219,-0.0226,-0.0234,-0.0233,-0.0241,-0.0184,-0.0169,-0.0227,-0.0227,-0.0227,-0.0227,-0.0227,-0.0227,0.0429,0.0366,0.0347,0.0265,0.0234,0.0174,0.0145,0.0107,0.007,-0.0006,-0.0054,-0.0082,-0.0129,-0.0193,-0.0248,-0.0261,-0.0283,-0.029,-0.0304,-0.0251,-0.0245,-0.0239,-0.0225,-0.0294,-0.0294,-0.0357,-0.0357,-0.0358]},{"header":{"parameterUnit":"m.s-1","parameterCategory":1,"la1":30.2991,"la2":30.254,"lo1":-89.0895,"lo2":-89.0444,"dy":0.0017,"dx":0.0017,"nx":28,"ny":28,"refTime":"2023-08-30T09:00:00:Z","depth":0,"parameterNumber":3,"parameterNumberName":"V-component_of_WINDS"},"data":[0,0,0,0,0,0,0,0,0,0,0,0,0,0,0,0,0,0,0,0,0,0,0,0,0,0,0,0,0,0,0,0,0,0,0,0,0,0,0,0,0,0,0,0,0,0,0,0,0,0,0,0,0,0,0,0,0,0,-5.4763,-5.4763,0,-5.4739,-5.4739,-5.4738,-5.4615,-5.4612,-5.4609,-5.4607,-5.4583,-5.4585,-5.4587,0,0,0,0,0,0,0,0,0,0,0,0,0,-5.4706,-5.4707,-5.4763,-5.4763,-5.4763,-5.4739,-5.4739,-5.4738,-5.4616,-5.4612,-5.4609,-5.4605,-5.4582,-5.4585,-5.4587,0,0,0,0,0,0,0,0,0,0,0,0,0,-5.4711,-5.4708,-5.4763,-5.4699,-5.4693,-5.4739,-5.4739,-5.4738,-5.4617,-5.4612,-5.4608,-5.4604,-5.4581,-5.4585,-5.4588,-5.4695,0,0,-5.4597,-5.4599,0,0,0,0,0,0,0,0,-5.4711,-5.4713,-5.4709,-5.4703,-5.4697,-5.4676,-5.4709,-5.4724,-5.4618,-5.4646,-5.4607,-5.4602,-5.4617,-5.4617,-5.4622,-5.4693,-5.4692,-5.4597,-5.4599,-5.4601,-5.4602,0,0,0,0,0,0,0,-5.4711,-5.4714,-5.4754,-5.4709,-5.4701,-5.4671,-5.4667,-5.4712,-5.4656,-5.4643,-5.4634,-5.4633,-5.4613,-5.462,-5.4621,-5.4692,-5.4597,-5.46,-5.4602,-5.4603,-5.485,-5.4855,0,0,0,0,0,0,-5.4719,-5.4714,-5.4754,-5.4753,-5.4693,-5.4676,-5.4671,-5.4687,-5.4656,-5.4647,-5.4636,-5.4627,-5.4616,-5.4617,-5.462,-5.4742,-5.4601,-5.4604,-5.4605,-5.4845,-5.4851,-5.4856,0,0,0,0,0,0,-5.4718,-5.4724,-5.4755,-5.4731,-5.4733,-5.4682,-5.47,-5.4689,-5.4695,-5.4651,-5.464,-5.4653,-5.4613,-5.4615,-5.4677,-5.474,-5.4605,-5.4608,-5.484,-5.4847,-5.4854,-5.499,0,0,0,0,0,0,-5.4717,-5.4724,-5.4764,-5.4733,-5.4735,-5.4813,-5.4704,-5.4691,-5.47,-5.4688,-5.4663,-5.4655,-5.461,-5.4673,-5.468,-5.4742,-5.461,-5.4834,-5.4843,-5.4851,-5.4979,-5.5001,-5.5019,0,0,0,0,0,-5.4716,-5.4804,-5.4767,-5.4772,-5.4783,-5.4817,-5.4818,-5.4763,-5.4706,-5.4746,-5.4717,-5.4656,-5.4732,-5.468,-5.4687,-5.4751,-5.483,-5.4841,-5.4851,-5.4971,-5.4997,-5.5018,0,0,0,0,0,0,-5.4843,-5.4798,-5.4757,-5.4837,-5.4832,-5.4796,-5.4844,-5.4793,-5.4803,-5.4791,-5.4724,-5.472,-5.4791,-5.4777,-5.472,-5.4853,-5.4771,-5.4783,-5.4859,-5.4884,-5.4903,-5.4904,-5.4613,0,0,0,0,0,-5.4881,-5.4912,-5.4871,-5.4946,-5.4945,-5.4896,-5.4908,-5.4867,-5.4859,-5.4856,-5.4832,-5.4827,-5.4849,-5.4866,-5.4884,-5.4977,-5.497,-5.5025,-5.5045,-5.5061,-5.5072,-5.5121,-5.5144,-5.4891,-5.4891,-5.489,0,0,-5.4959,-5.4938,-5.4962,-5.4971,-5.4962,-5.4996,-5.4894,-5.4934,-5.4959,-5.4862,-5.4918,-5.4901,-5.4891,-5.4969,-5.5002,-5.496,-5.5141,-5.5074,-5.5088,-5.509,-5.5134,-5.5158,-5.5179,-5.4898,-5.4897,-5.4895,0,0,-5.5118,-5.5105,-5.5166,-5.5159,-5.5147,-5.5114,-5.5129,-5.5101,-5.5086,-5.5141,-5.5069,-5.5098,-5.5139,-5.5134,-5.5138,-5.5297,-5.5241,-5.5305,-5.5407,-5.5455,-5.5475,-5.5492,-5.5549,-5.557,-5.5316,-5.5317,-5.5317,0,-5.5216,-5.5264,-5.5204,-5.5249,-5.5255,-5.517,-5.5231,-5.5228,-5.5222,-5.5229,-5.5182,-5.5231,-5.5218,-5.5294,-5.5333,-5.5338,-5.5354,-5.5307,-5.5477,-5.5494,-5.5509,-5.5562,-5.5584,-5.5325,-5.5324,-5.5323,-5.5322,0,-5.5385,-5.542,-5.547,-5.5467,-5.5479,-5.5533,-5.5482,-5.5502,-5.546,-5.5432,-5.549,-5.5472,-5.5485,-5.5501,-5.546,-5.5571,-5.5545,-5.5489,-5.5404,-5.5542,-5.5591,-5.5611,-5.5336,-5.5333,-5.5331,-5.5329,0,0,-5.5622,-5.5586,-5.5606,-5.5604,-5.5584,-5.561,-5.566,-5.5673,-5.5691,-5.5691,-5.5731,-5.5768,-5.5716,-5.5719,-5.5678,-5.5721,-5.5848,-5.5658,-5.5657,-5.5694,-5.5969,-5.6011,-5.6036,-5.5811,-5.5815,-5.5817,-5.5969,0,-5.5774,-5.5856,-5.5805,-5.5895,-5.5926,-5.5846,-5.5889,-5.5883,-5.5858,-5.5882,-5.5855,-5.5882,-5.5811,-5.5813,-5.5851,-5.5824,-5.5902,-5.5813,-5.5848,-5.585,-5.5852,-5.6061,-5.6105,-5.625,-5.5988,-5.5991,-5.5994,0,-5.5961,-5.5969,-5.6063,-5.6038,-5.6049,-5.6089,-5.6096,-5.612,-5.6111,-5.609,-5.6096,-5.6044,-5.6092,-5.601,-5.6074,-5.6015,-5.6027,-5.6016,-5.602,-5.6021,-5.5929,-5.6067,-5.6294,-5.6316,-5.6023,-5.6021,-5.6019,0,-5.6125,-5.6159,-5.6219,-5.6219,-5.6192,-5.6222,-5.6212,-5.6199,-5.621,-5.6218,-5.6224,-5.6238,-5.6245,-5.6257,-5.6211,-5.6155,-5.6282,-5.6196,-5.6266,-5.6268,-5.6296,-5.6294,-5.6528,-5.6305,-5.6305,-5.6304,-5.6304,0,-5.6299,-5.6359,-5.6292,-5.6329,-5.6394,-5.6335,-5.6402,-5.6384,-5.6373,-5.6405,-5.6337,-5.6369,-5.6307,-5.6333,-5.6297,-5.6356,-5.636,-5.6345,-5.6335,-5.6351,-5.6353,-5.6357,-5.6345,-5.631,-5.6309,-5.6308,-5.6307,0,-5.6492,-5.6449,-5.6509,-5.6479,-5.6473,-5.6522,-5.6496,-5.6529,-5.6501,-5.6543,-5.655,-5.6505,-5.6532,-5.6488,-5.651,-5.6486,-5.6568,-5.6543,-5.6571,-5.6563,-5.6636,-5.663,-5.688,-5.691,-5.6669,-5.6671,-5.6673,0,-5.6605,-5.665,-5.6624,-5.6641,-5.6635,-5.6663,-5.6674,-5.6618,-5.6633,-5.6627,-5.6661,-5.6682,-5.6696,-5.6744,-5.6714,-5.6731,-5.6705,-5.6791,-5.6707,-5.6722,-5.6706,-5.6703,-5.6707,-5.6808,-5.6811,-5.6814,-5.6816,0,-5.6811,-5.6788,-5.6806,-5.6819,-5.6834,-5.6841,-5.6842,-5.686,-5.6801,-5.6822,-5.6848,-5.6859,-5.6882,-5.6904,-5.6914,-5.6904,-5.6851,-5.6843,-5.686,-5.6876,-5.6891,-5.6884,-5.6618,-5.6837,-5.6835,-5.6833,-5.6832,-5.6831,-5.6967,-5.7003,-5.6991,-5.7014,-5.701,-5.7013,-5.7043,-5.7018,-5.704,-5.7053,-5.7019,-5.7055,-5.7046,-5.7053,-5.7049,-5.7076,-5.7038,-5.7063,-5.7069,-5.7076,-5.7087,-5.6887,-5.7078,-5.7077,-5.7076,-5.7076,-5.7075,0,-5.7169,-5.7157,-5.718,-5.7184,-5.7203,-5.7151,-5.7151,-5.717,-5.7201,-5.7197,-5.7213,-5.7244,-5.7266,-5.7238,-5.7255,-5.7282,-5.7258,-5.7288,-5.7285,-5.7284,-5.712,-5.7104,-5.7307,-5.7307,-5.7307,-5.7307,-5.7307,-5.7307,-5.7276,-5.7334,-5.731,-5.7366,-5.7353,-5.7387,-5.7391,-5.7395,-5.7391,-5.7429,-5.7446,-5.7428,-5.7415,-5.743,-5.7448,-5.7439,-5.7449,-5.7488,-5.7471,-5.7318,-5.7296,-5.7274,-5.7258,-5.749,-5.7491,-5.7632,-5.7633,-5.7634]}]]